Regional Weather Roundup
Issued by NWS

Home | Current Version | Previous Version | Text Only | Print | Product List | Glossary Off
Versions: 1 2 3 4 5 6 7 8 9 10 11 12 13 14 15 16 17 18 19 20 21 22 23 24 25 26 27

000
ASUS45 KBOU 271807
RWRCO

WEATHER ROUNDUP FOR COLORADO
NATIONAL WEATHER SERVICE DENVER/BOULDER CO
1200 PM MDT WED JUL 27 2016

NOTE: "FAIR" INDICATES FEW OR NO CLOUDS BELOW 12000 FEET WITH NO
SIGNIFICANT WEATHER AND/OR OBSTRUCTIONS TO VISIBILITY.

COZ001>005-013-030-031-271900-
...NORTHWEST COLORADO...

CITY           SKY/WX    TMP DP  RH WIND       PRES   REMARKS
CRAIG          FAIR      86  35  16 N7        30.28F
HAYDEN         FAIR      81  30  16 W9        30.31F
MEEKER         FAIR      85  41  21 SW8       30.29F
MOUNT WERNER   NOT AVBL
STEAMBOAT SPGS FAIR      78  37  23 SW5       30.34S
WALDEN         FAIR      79  30  17 W9G16     30.42F
$$

COZ006>008-011-271900-
...WEST CENTRAL VALLEYS...

CITY           SKY/WX    TMP DP  RH WIND       PRES   REMARKS
GRAND JUNCTION FAIR      88  42  20 S6        30.18F
MONTROSE       FAIR      83  48  29 SW3       30.27F
EAGLE          SUNNY     77  37  24 E6        30.34
RIFLE          FAIR      85  40  20 VRB5      30.24F
DELTA          NOT AVBL
NUCLA          NOT AVBL
$$

COZ017>023-064>068-271900-
...SOUTHWEST COLORADO...

CITY           SKY/WX    TMP DP  RH WIND       PRES   REMARKS
DURANGO        FAIR      83  44  25 W7        30.31F
CORTEZ         FAIR      88  46  23 VRB3      30.26F
PAGOSA SPRINGS FAIR      80  33  18 SW3       30.40S
TELLURIDE      FAIR      75  36  23 W10G17    30.55S
WOLF CREEK PAS FAIR      61  32  33 NE21G30   30.76R
$$

COZ009-010-012-014-032>034-037-058>063-271900-
...CENTRAL COLORADO...

CITY           SKY/WX    TMP DP  RH WIND       PRES   REMARKS
ASPEN          FAIR      81  34  18 NW9       30.40F
BUENA VISTA    FAIR      83  24  11 N17G23    30.39F
COPPER MTN     FAIR      64  14  14 NW23G29   30.75S
BERTHOUD PASS  FAIR      54  39  58 NW21G39   30.77S
COTTONWOOD PAS FAIR      77  18  10 CALM      30.57S
GUNNISON       FAIR      73  43  33 W7        30.44F
KREMMLING      FAIR      73  36  25 NW3       30.40F
LEADVILLE      FAIR      71  18  13 VRB5G23   30.56S
SALIDA         FAIR      82  29  15 NW6       30.44F
SUNLIGHT       FAIR      68  39  34 MISG      30.70R
WILKERSON PASS FAIR      64  23  20 CALM      30.70S
$$

COZ069>075-271900-
...SAN LUIS VALLEY/SANGRE DE CRISTO MOUNTAINS...

CITY           SKY/WX    TMP DP  RH WIND       PRES   REMARKS
ALAMOSA        FAIR      77  46  33 VRB3      30.39F
LA VETA PASS   FAIR      72  37  28 CALM      30.59F
SAGUACHE       FAIR      79  41  25 S7        30.40F
$$

COZ035-036-038>040-271900-
...NORTHERN COLORADO FRONT RANGE...

CITY           SKY/WX    TMP DP  RH WIND       PRES   REMARKS
DENVER INTL AP FAIR      80  53  39 N12       30.22F
DMNS CITY PARK   N/A     81  50  33 E3G12     30.21F
AURORA         MOSUNNY   80  51  37 VRB5      30.24F
FRONT RANGE AP MOSUNNY   82  54  36 NW13      30.24S
ERIE MUNI ARPT FAIR      80  51  36 NE3       30.21F
BOULDER MUN AP FAIR      81  48  32 NE3       30.22S
CENTENNIAL     FAIR      79  46  31 N7        30.26S
BROOMFIELD     MOSUNNY   77  50  38 NE5       30.25F
LONGMONT       NOT AVBL
$$

COZ041-046-047-076>085-087-088-271900-
...PIKES PEAK/PALMER DIVIDE AND SOUTHERN FOOTHILLS...

CITY           SKY/WX    TMP DP  RH WIND       PRES   REMARKS
COLO. SPRINGS  FAIR      85  50  29 E8G22     30.26F
A. F. ACADEMY  MOSUNNY   86  39  19 N8G20     30.27S
SCHRIEVER AFB  NOT AVBL
ELLICOTT       FAIR     N/A N/A N/A VRB7      30.25S
FALCON         NOT AVBL
FORT CARSON    FAIR      82  55  39 SE10      30.23F
LIMON          FAIR      85  50  29 SW6       30.21S
MONUMENT HILL  FAIR      77  41  27 N10       30.35F
TRINIDAD       NOT AVBL
$$

COZ042>045-048>051-090-091-271900-
...NORTHEAST COLORADO...

CITY           SKY/WX    TMP DP  RH WIND       PRES   REMARKS
GREELEY ARPT   FAIR      81  57  44 NE8       30.19F
AKRON          FAIR      79  61  53 E7        30.16F
BURLINGTON     FAIR      81  60  48 E7        30.16F
WRAY           FAIR      82  57  42 SE9       30.13F
STERLING       NOT AVBL
HOLYOKE        NOT AVBL
FORT MORGAN    NOT AVBL
$$

COZ086-089-092>099-271900-
...SOUTHEAST COLORADO...

CITY           SKY/WX    TMP DP  RH WIND       PRES   REMARKS
PUEBLO         FAIR      88  52  29 W3        30.14F
LA JUNTA       FAIR      85  61  44 VRB3      30.13F
LAMAR          FAIR      84  64  50 VRB6      30.09F
SPRINGFIELD      N/A     89  61  38 SE14G22   30.13F
$$




USA.gov is the U.S. government's official web portal to all federal, state and local government web resources and services.